When you browse on this site, cookies collect data to enhance your experience and personalize the content and advertising you see.
Visit our Privacy Policy to learn more. By continuing to use the site, you agree to this use of cookies and data.
  • In United Kingdom
  • List of Countries
  • For 7 days
  • Water Temperature
  • Weather Map
  • Weather Widgets
  • user-avatar
    Login

    Hourly Weather Buftea

    Today, 23 September, Monday

    Time Temperature Precipitation Wind Pressure Humidity
    00:00 +14°C° 0 mm 1 mps 754 mmHg 35%
    01:00 +14°C° 0 mm 1 mps 754 mmHg 36%
    02:00 +12°C° 0 mm 0 mps 753 mmHg 37%
    03:00 +13°C° 0 mm 1 mps 753 mmHg 37%
    04:00 +13°C° 0 mm 1 mps 753 mmHg 37%
    05:00 +13°C° 0 mm 1 mps 752 mmHg 37%
    06:00 +15°C° 0 mm 1 mps 752 mmHg 34%
    07:00 +16°C° 0 mm 1 mps 752 mmHg 31%
    08:00 +19°C° 0 mm 1 mps 752 mmHg 28%
    09:00 +21°C° 0 mm 1 mps 752 mmHg 25%
    10:00 +23°C° 0 mm 2 mps 752 mmHg 21%
    11:00 +25°C° 0 mm 2 mps 752 mmHg 17%
    12:00 +26°C° 0 mm 2 mps 751 mmHg 17%
    13:00 +27°C° 0 mm 2 mps 751 mmHg 16%
    14:00 +27°C° 0 mm 2 mps 751 mmHg 16%
    15:00 +27°C° 0 mm 2 mps 750 mmHg 17%
    16:00 +26°C° 0 mm 2 mps 750 mmHg 19%
    17:00 +25°C° 0 mm 2 mps 750 mmHg 20%
    18:00 +24°C° 0 mm 2 mps 750 mmHg 22%
    19:00 +23°C° 0 mm 1 mps 750 mmHg 24%
    20:00 +22°C° 0 mm 1 mps 751 mmHg 26%
    21:00 +21°C° 0 mm 1 mps 751 mmHg 27%
    22:00 +21°C° 0 mm 1 mps 751 mmHg 27%
    23:00 +21°C° 0 mm 1 mps 750 mmHg 27%

    Tomorrow, 24 September, Tuesday

    Time Temperature Precipitation Wind Pressure Humidity
    00:00 +21°C° 0 mm 1 mps 750 mmHg 30%
    01:00 +19°C° 0 mm 2 mps 750 mmHg 34%
    02:00 +19°C° 0 mm 2 mps 750 mmHg 37%
    03:00 +19°C° 0 mm 2 mps 750 mmHg 41%
    04:00 +18°C° 0 mm 2 mps 750 mmHg 45%
    05:00 +18°C° 0 mm 2 mps 750 mmHg 49%
    06:00 +18°C° 0 mm 3 mps 750 mmHg 54%
    07:00 +17°C° 0 mm 4 mps 750 mmHg 58%
    08:00 +17°C° 0 mm 4 mps 750 mmHg 63%
    09:00 +16°C° 0 mm 5 mps 751 mmHg 64%
    10:00 +16°C° 0 mm 5 mps 751 mmHg 65%
    11:00 +17°C° 0 mm 5 mps 751 mmHg 66%
    12:00 +17°C° 0 mm 5 mps 751 mmHg 65%
    13:00 +17°C° 0 mm 5 mps 751 mmHg 65%
    14:00 +18°C° 0 mm 4 mps 751 mmHg 64%
    15:00 +18°C° 0 mm 4 mps 750 mmHg 64%
    16:00 +18°C° 0 mm 4 mps 750 mmHg 64%
    17:00 +19°C° 0 mm 4 mps 750 mmHg 63%
    18:00 +18°C° 0 mm 3 mps 750 mmHg 66%
    19:00 +17°C° 0 mm 3 mps 751 mmHg 69%
    20:00 +17°C° 0 mm 3 mps 751 mmHg 72%
    21:00 +17°C° 0 mm 3 mps 751 mmHg 73%
    22:00 +16°C° 0 mm 2 mps 751 mmHg 74%
    23:00 +16°C° 0 mm 2 mps 751 mmHg 75%

    Day after tomorrow, 25 September, Wednesday

    Time Temperature Precipitation Wind Pressure Humidity
    00:00 +16°C° 0 mm 2 mps 751 mmHg 76%
    01:00 +16°C° 0 mm 2 mps 751 mmHg 76%
    02:00 +16°C° 0 mm 2 mps 751 mmHg 77%
    03:00 +16°C° 0 mm 2 mps 751 mmHg 79%
    04:00 +16°C° 0 mm 2 mps 751 mmHg 80%
    05:00 +16°C° 0 mm 2 mps 751 mmHg 81%
    06:00 +16°C° 0 mm 2 mps 751 mmHg 79%
    07:00 +17°C° 0 mm 2 mps 751 mmHg 77%
    08:00 +17°C° 0 mm 2 mps 751 mmHg 75%
    09:00 +19°C° 0 mm 3 mps 751 mmHg 70%
    10:00 +20°C° 0 mm 3 mps 751 mmHg 64%
    11:00 +21°C° 0 mm 3 mps 751 mmHg 58%
    12:00 +22°C° 0 mm 3 mps 751 mmHg 55%
    13:00 +23°C° 0 mm 2 mps 751 mmHg 51%
    14:00 +24°C° 0 mm 2 mps 750 mmHg 48%
    15:00 +24°C° 0 mm 2 mps 750 mmHg 48%
    16:00 +24°C° 0 mm 2 mps 750 mmHg 48%
    17:00 +24°C° 0 mm 2 mps 750 mmHg 47%
    18:00 +23°C° 0 mm 2 mps 750 mmHg 53%
    19:00 +20°C° 0 mm 2 mps 750 mmHg 58%
    20:00 +19°C° 0 mm 2 mps 750 mmHg 63%
    21:00 +19°C° 0 mm 2 mps 750 mmHg 64%
    22:00 +18°C° 0 mm 2 mps 750 mmHg 66%
    23:00 +18°C° 0 mm 2 mps 750 mmHg 68%

    26 September, Thursday

    Time Temperature Precipitation Wind Pressure Humidity
    00:00 +17°C° 0 mm 2 mps 750 mmHg 72%
    01:00 +17°C° 0 mm 2 mps 750 mmHg 75%
    02:00 +17°C° 0 mm 2 mps 750 mmHg 79%
    03:00 +16°C° 0 mm 2 mps 750 mmHg 80%
    04:00 +16°C° 0 mm 2 mps 750 mmHg 81%
    05:00 +16°C° 0 mm 2 mps 750 mmHg 82%
    06:00 +17°C° 0.3 mm 2 mps 750 mmHg 81%
    07:00 +17°C° 0.3 mm 2 mps 750 mmHg 80%
    08:00 +18°C° 0.3 mm 2 mps 750 mmHg 79%
    09:00 +20°C° 0 mm 2 mps 750 mmHg 71%
    10:00 +23°C° 0 mm 1 mps 750 mmHg 62%
    11:00 +25°C° 0 mm 1 mps 751 mmHg 53%
    12:00 +26°C° 0 mm 1 mps 750 mmHg 49%
    13:00 +27°C° 0 mm 1 mps 750 mmHg 45%
    14:00 +27°C° 0 mm 1 mps 749 mmHg 41%
    15:00 +27°C° 0 mm 1 mps 749 mmHg 42%
    16:00 +27°C° 0 mm 1 mps 749 mmHg 42%
    17:00 +27°C° 0 mm 1 mps 749 mmHg 43%
    18:00 +25°C° 0.7 mm 2 mps 749 mmHg 52%
    19:00 +23°C° 0.7 mm 2 mps 749 mmHg 61%
    20:00 +20°C° 0.7 mm 3 mps 750 mmHg 70%
    21:00 +20°C° 1 mm 3 mps 750 mmHg 74%
    22:00 +19°C° 1 mm 3 mps 750 mmHg 78%
    23:00 +19°C° 1 mm 3 mps 750 mmHg 82%

    27 September, Friday

    Time Temperature Precipitation Wind Pressure Humidity
    00:00 +18°C° 0.6 mm 3 mps 750 mmHg 82%
    01:00 +18°C° 0.6 mm 3 mps 750 mmHg 82%
    02:00 +18°C° 0.6 mm 3 mps 750 mmHg 82%
    03:00 +17°C° 0.7 mm 2 mps 750 mmHg 83%
    04:00 +17°C° 0.7 mm 2 mps 750 mmHg 84%
    05:00 +17°C° 0.7 mm 2 mps 750 mmHg 86%
    06:00 +17°C° 0.4 mm 2 mps 750 mmHg 83%
    07:00 +17°C° 0.4 mm 2 mps 751 mmHg 81%
    08:00 +17°C° 0.4 mm 2 mps 751 mmHg 79%
    09:00 +18°C° 0.3 mm 2 mps 751 mmHg 75%
    10:00 +19°C° 0.3 mm 3 mps 752 mmHg 71%
    11:00 +20°C° 0.3 mm 4 mps 752 mmHg 66%
    12:00 +20°C° 0.3 mm 3 mps 752 mmHg 62%
    13:00 +21°C° 0.3 mm 3 mps 752 mmHg 58%
    14:00 +22°C° 0.3 mm 3 mps 752 mmHg 55%
    15:00 +21°C° 0 mm 3 mps 752 mmHg 57%
    16:00 +21°C° 0 mm 4 mps 753 mmHg 58%
    17:00 +20°C° 0 mm 4 mps 753 mmHg 60%
    18:00 +19°C° 0 mm 4 mps 753 mmHg 66%
    19:00 +18°C° 0 mm 4 mps 754 mmHg 71%
    20:00 +16°C° 0 mm 3 mps 755 mmHg 77%
    21:00 +16°C° 0 mm 3 mps 755 mmHg 79%
    22:00 +16°C° 0 mm 2 mps 755 mmHg 82%
    23:00 +15°C° 0 mm 1 mps 756 mmHg 84%

    28 September, Saturday

    Time Temperature Precipitation Wind Pressure Humidity
    00:00 +15°C° 0 mm 1 mps 756 mmHg 85%
    01:00 +14°C° 0 mm 0 mps 756 mmHg 87%
    02:00 +14°C° 0 mm 0 mps 756 mmHg 88%
    03:00 +13°C° 0 mm 0 mps 756 mmHg 89%
    04:00 +13°C° 0 mm 0 mps 756 mmHg 89%
    05:00 +14°C° 0 mm 1 mps 756 mmHg 90%
    06:00 +15°C° 0 mm 1 mps 756 mmHg 86%
    07:00 +15°C° 0 mm 1 mps 756 mmHg 81%
    08:00 +16°C° 0 mm 1 mps 756 mmHg 77%
    09:00 +19°C° 0 mm 1 mps 756 mmHg 69%
    10:00 +19°C° 0 mm 2 mps 756 mmHg 62%
    11:00 +21°C° 0 mm 2 mps 756 mmHg 55%
    12:00 +23°C° 0 mm 2 mps 756 mmHg 51%
    13:00 +24°C° 0 mm 2 mps 755 mmHg 47%
    14:00 +25°C° 0 mm 2 mps 755 mmHg 42%
    15:00 +25°C° 0 mm 2 mps 754 mmHg 43%
    16:00 +25°C° 0 mm 2 mps 754 mmHg 43%
    17:00 +25°C° 0 mm 2 mps 754 mmHg 43%
    18:00 +23°C° 0 mm 2 mps 754 mmHg 48%
    19:00 +21°C° 0 mm 3 mps 754 mmHg 53%
    20:00 +19°C° 0 mm 3 mps 754 mmHg 58%
    21:00 +19°C° 0 mm 3 mps 754 mmHg 60%
    22:00 +18°C° 0 mm 2 mps 754 mmHg 62%
    23:00 +18°C° 0 mm 2 mps 755 mmHg 64%
    Show more